Regional Weather Roundup
Issued by NWS Upton, NY

Current Version | Previous Version | Graphics & Text | Print | Product List | Glossary Off
Versions: 1 2 3 4 5 6 7 8 9 10 11 12 13 14 15 16 17 18 19 20 21 22 23 24 25 26 27

000
ASUS41 KOKX 231805
RWROKX

Regional Weather Roundup
National Weather Service New York NY
200 PM EDT MON APR 23 2018

Note: "FAIR" indicates few or no clouds below 12,000 feet with no
significant weather and/or obstructions to visibility.

NYZ071-072-176-178-NJZ106-104-231900-
New York City Metro Area

CITY           SKY/WX    TMP DP  RH WIND       PRES   REMARKS
Central Park   FAIR      67  25  20 VRB7      30.47F
Bronx Bot Gard   N/A     63  25  23 E6        30.46S
Bronx Lehman C   N/A     63  25  23 E8          N/A
LaGuardia Arpt FAIR      60  29  30 NE13      30.45F
Queens College   N/A     63  27  25 S3          N/A
Kennedy Intl   FAIR      59  31  34 SE14      30.48S
Breezy Point     N/A     50 N/A N/A SE12        N/A
Brooklyn Coll    N/A     57  28  33 E13         N/A
Staten Island    N/A     57  32  38 SE12        N/A
Newark/Liberty FAIR      64  34  32 E8        30.45F
Teterboro      FAIR      66  26  22 E7        30.43F
$$

NYZ177-179-078>081-231900-
Long Island New York

CITY           SKY/WX    TMP DP  RH WIND       PRES   REMARKS
Jones Beach      N/A     48 N/A N/A SE12        N/A
Wantagh          N/A     55  37  50 E12         N/A
Hempstead        N/A     61  32  33 S10       30.48S
Matinecock Pt    N/A     48 N/A N/A NE12        N/A
Farmingdale    FAIR      60  25  26 SE13      30.47F
MacArthur/ISP  FAIR      59  24  26 SE10      30.47F
Stony Brook      N/A     61  23  23 S3          N/A
Shirley        FAIR      58  26  29 S16       30.48F
Mt Sinai Harb    N/A    N/A N/A N/A NE7         N/A
Westhampton    FAIR      57  18  21 E10       30.50F
East Hampton   FAIR      53  23  31 SE9       30.48F
Southold         N/A     57  28  33 S9          N/A
Montauk          N/A     54  33  45 S9        30.50S
$$

NYZ052-065-067-231900-
Hudson Valley

CITY           SKY/WX    TMP DP  RH WIND       PRES   REMARKS
White Plains   FAIR      61  23  23 SE10      30.44F
Larchmont Harb   N/A     46 N/A N/A NE10        N/A
Croton On Huds   N/A     61 N/A N/A SE6         N/A
Somers           N/A     63  25  23 S7          N/A
Brewster         N/A     64  18  16 SE5         N/A
Newburgh       SUNNY     64  16  15 CALM      30.43F
Montgomery     FAIR      65  17  15 VRB3      30.40F
Otisville        N/A     63  23  22 SE6         N/A
Warwick          N/A     66  23  19 E7          N/A
Suffern          N/A     63  23  22 SE6         N/A
Poughkeepsie   FAIR      66  22  18 CALM      30.41F
Albany         FAIR      65  14  14 CALM      30.43F
$$

NJZ001-105-106-008-010-013-015-019>022-104-231900-
New Jersey

CITY           SKY/WX    TMP DP  RH WIND       PRES   REMARKS
Newark/Liberty FAIR      64  34  32 E8        30.45F
Teterboro      FAIR      66  26  22 E7        30.43F
Caldwell       FAIR      64  17  16 VRB5      30.44F
Somerville     FAIR      67  33  28 SE9G18    30.42S
Linden         FAIR      62  28  27 S14       30.46S
Perth Amboy      N/A     50 N/A N/A E12         N/A
Sussex         FAIR      67  25  20 CALM      30.41F
Andover          N/A     66  19  16 SW5       30.41F
Trenton        FAIR      68  27  21 VRB3      30.43S
Millville      FAIR      64  29  26 S9        30.45R
Atlantic City  FAIR      65  30  27 S15       30.45S
Wrightstown    FAIR      69  26  20 N6        30.40F
Toms River     NOT AVBL
Belmar         FAIR      56  35  45 E10       30.48R
$$

PAZ047>061-062-071-231900-
Eastern Pennsylvania

CITY           SKY/WX    TMP DP  RH WIND       PRES   REMARKS
Philadelphia   FAIR      69  33  26 E5        30.43F
Allentown      FAIR      69  24  18 S8        30.41F
Scranton       FAIR      67  20  16 W3        30.37F
$$

CTZ002-004>006-009-010-012-RIZ004-006-007-MAZ004-011-015-231900-
Southern New England

 In CT

CITY           SKY/WX    TMP DP  RH WIND       PRES   REMARKS
Bradley Intl   FAIR      63  17  17 VRB3      30.44F
Hartford       FAIR      64  17  16 VRB5      30.44F
Danbury        FAIR      62  25  24 SE7       30.44F
Wtrbury/Oxford FAIR      62  23  22 VRB6      30.44F
Norwalk Harbor   N/A     48 N/A N/A E10         N/A
Bridgeport     FAIR      60  16  18 E10       30.46F
Meriden        FAIR      63  24  22 SE6       30.44F
New Haven      FAIR      61  23  23 S15       30.47F
Chester        FAIR      63  19  19 S8        30.46F
Groton         FAIR      56  27  32 S10       30.47S
Willimantic    FAIR      65  21  18 VRB3      30.44F

 In RI

CITY           SKY/WX    TMP DP  RH WIND       PRES   REMARKS
Providence     FAIR      66  20  17 E9        30.45F
Block Island   FAIR      56  21  25 SE12      30.48S
Westerly       FAIR      59  24  26 S13       30.48S

In MA

CITY           SKY/WX    TMP DP  RH WIND       PRES   REMARKS
Boston         FAIR      56  22  26 E13       30.47F
Worcester      FAIR      59  18  20 S6        30.44F
Westfield      FAIR      64  11  12 VRB6      30.43F
Provincetown   FAIR      52  25  35 NE7       30.49F
Nantucket      FAIR      58  22  24 NE10      30.48S
$$

ANZ330-335-338-340-345-350-353-355-231900-
Coastal Marine Observations


STATION/POSITION TIME  SKY/WX   TEMP    WIND        PRES    VSBY  WAVE
                                AIR SEA DIR/SP/G                  HT/PER
                 (UTC)          (F)     (DEG/KT/KT) (MB)    (MI)  (FT/S)
NY Harb Entrance 1750            47 47  100/  8/ 10 1032.1          1/15
20 S Fire Island 1750            47 47  140/  4/  6 1032.2          1/14
23 SSW Montauk P 1750            47 47  130/  4/  4 1032.7          1/14
15 E Barnegat Li 1730               48                N/A           1/15
Hudson Canyon    1750            53 48     CALM     1031.8          1/15
Kings Point      1742            51 47   60/  7/  8 1032.3
Execution Rocks  NOT AVBL
Western LI Sound NOT AVBL
Central LI Sound 1715            49     170/  8/ 10   N/A           0
Robbins Reef     1742            56     170/ 13/ 15 1031.8
$$


>>>>>>>>>>>>>>>>>>>>>>>>>>>> KEY <<<<<<<<<<<<<<<<<<<<<<<<<<<
>                                                          <
>     SKY/WX - Sky Condition/Present Weather               <
>     TMP    - Temperature in Fahrenheit                   <
>     DP     - Dew Point in Fahrenheit                     <
>     RH     - Relative Humidity in Percent                <
>     WIND   - Direction (from) and Speed in MPH           <
>     PRES   - Mean Sea Level Pressure (inches of Hg)      <
>     WCI    - Wind Chill Index                            <
>     VSB    - Visibility in Miles                         <
>     HX     - Heat Index                                  <
>     TC     - Temperature in Celsius                      <
>     VRB    - Varibale Wind Direction                     <
>                                                          <
>>>>>>>>>>>>>>>>>>>>>>>>>>>> KEY <<<<<<<<<<<<<<<<<<<<<<<<<<<




USA.gov is the U.S. government's official web portal to all federal, state and local government web resources and services.